Погода в Тетюши

Погода в Тетюши : погода сейчас, прогноз погоды и архив. Всё, что Вы хотите узнать о погоде в Тетюши!

Поиск расширенной информации на нашем сайте:

Другие новости

Новости СМИ2

Главная страница сайта

Новости сайта

03.07.2017

Напоминаем, что на нашем специализированном сайте Метеоцентр.Азия вы можете получить высокодетализированные автоматические прогнозы погоды по пунктам России, СНГ и мира в авиационном формате (включающие направление и скорость ветра, видимость, явления погоды, количество и форму облачности, нижнюю и верхнюю границу облачности).


Погода в Тетюши - сегодня

Время (UTC), дата Ветер
(°,м/с) 
Видим.   Явления Облачность Т
(°С)
Тd
(°С)
f(%) Тe
(°С)
Pmin
(гПа)
dP
(гПа)
Po
(мм)
O2
(г/м3)
Тmin Tmax R s Состояние
почвы
09 23.05.18 250 (З) 20000 м    8/0 средняя, верхняя 
[Ac trans|Ci fib]
+24.2 +3.2 25 +24  1026.8  -0.9  756  280           
12 23.05.18 170 (Ю) 20000 м    8/0 средняя 
[Ac trans]
+24.9 +3.1 24 +25  1024.9  -1.8  755  278           
18 23.05.18 160 (Ю) 20000 м    8/0 средняя 
[Ac trans]
+19.9 +4.9 37 +21  1022.1  -1.1  753  282           
21 23.05.18 200 (Ю) 20000 м    8/0 средняя 
[Ac trans]
+18.4 +6.8 47 +19  1021.1  -1.1  752  283           
00 24.05.18 210 (ЮЗ) 20000 м    8/0 средняя 
[Ac trans]
+18.1 +5.2 43 +18  1020.6  -0.5  752  283           
06 24.05.18 200 (Ю) 20000 м    10/6 600 м средняя 
[Sc|As op]
+18.8 +10.3 58 +22  1020.5  -0.3  752  281  +17.3         
09 24.05.18 тихо ()   20000 м    10/6 600 м кучево-дожд., средняя 
[Cb cap|As op]
+19.7 +12.1 61 +24  1019.8  -0.6  751  280           
12 24.05.18 260 (З) 20000 м    10/6 600 м кучево-дожд., средняя 
[Cb cap|As op]
+21.2 +10.6 51 +23  1018.6  -1.1  750  279           
18 24.05.18 040 (СВ) 20000 м    10/6 600 м кучево-дожд., средняя 
[Cb cap|As op]
+16 +12.3 79 +21  1016.9  -1.1  749  283           
21 24.05.18 280 (З) 20000 м    10/6 600 м кучево-дожд., средняя 
[Cb cap|As op]
+14.9 +12 83 +19  1016.7  -0.3  749  284           
00 25.05.18 230 (ЮЗ) 20000 м  слаб. ливневой дождь  10/8 300 м кучево-дожд., средняя 
[Cb cap|As op]
+14.1 +12.3 89 +19  1015.6  -1.2  748  284           
06 25.05.18 360 (С) 7-11{11}  20000 м    8/6 600 м кучево-дожд., средняя 
[Cb cap|Ac trans]
+13.1 +4.6 56 +12  1017.9  1.8  749  287           
12 25.05.18 360 (С) 9-12{14}  20000 м    8/0 средняя, верхняя 
[Ac trans|Ci fib]
+13.7 -2.2 33 +12  1020.1  0.9  751  288           
18 25.05.18 340 (С) 5{13}  20000 м    6/0 средняя 
[Ac trans]
+8.3 -3.9 42 +7  1023.9  1.7  753  295           
21 25.05.18 330 (СЗ) 20000 м    ясно 
+4.1 -3.3 59 +3  1025.4  1.2  754  300           
00 26.05.18 350 (С) 20000 м    ясно 
+4.1 -2.5 62 +1  1026.7  1.3  755  300           
06 26.05.18 360 (С) 8-14{15}  20000 м    ясно 
+8 -7.5 32 +5  1030.2  1.6  758  298           
09 26.05.18 010 (С) 8-12{14}  20000 м    ясно 
+12 -7 26 +10  1030.1  0.2  758  293           
12 26.05.18 350 (С) 8-11{14}  20000 м    ясно 
+14.2 -6.5 23 +13  1029.4  -0.6  758  291           
18 26.05.18 290 (З) 20000 м    ясно 
+10.3 -4.9 34 +11  1029.8  0.9  758  295           
21 26.05.18 200 (Ю) 20000 м    ясно 
+7.1 -3.6 46 +7  1029.9  0.1  758  298           
00 27.05.18 200 (Ю) 20000 м    3/0 верхняя 
[Ci fib]
+6.4 -2.7 52 +5  1029.3  -0.6  757  298           
06 27.05.18 240 (ЮЗ) 8-12{13}  20000 м    4/3 600 м верхняя 
[Cu med, cong|Ci fib]
+17.3 -0.9 29 +17  1025.9  -2  755  286           
12 27.05.18 240 (ЮЗ) 8-13{14}  20000 м    8/0 средняя, верхняя 
[Ac trans|Ci fib]
+20.7 +2.3 30 +21  1020.1  -3.1  751  281           
18 27.05.18 220 (ЮЗ) 6{13}  20000 м    10/6 600 м кучево-дожд., средняя 
[Cb cap|As op]
+17 +0.9 34 +17  1014.3  -3.1  747  283           
Время (UTC), дата Ветер
(°,м/с) 
Видим.   Явления Облачность Т
(°С)
Тd
(°С)
f(%) Тe
(°С)
Pmin
(гПа)
dP
(гПа)
Po
(мм)
O2
(г/м3)
Тmin Tmax R s Состояние
почвы

Для получения пояснительной информации подведите курсор к названию столбца.

ПОГОДА в Тетюши - архив

Всё, что Вы хотите узнать о погоде в Тетюши - удобно и подробно!

Выберите нужную дату (начиная с 1 января 2015* года) и нажмите кнопку "Найти".
Будут отображены архивные сводки погоды по пункту Тетюши, начиная с указанной даты.


Отображать данные в формате CSV (для использования в таблицах Excel)


Внимание! Наш архив погоды предназначен исключительно для личного некоммерческого использования в познавательных целях. Если Вам необходимы официальные справки о состоянии погоды (для производственных, юридических, коммерческих и т.п. целей), обращайтесь в органы Росгидромета.

*Примечание: данная дата относится к архиву по метеостанциям СССР (Россия, СНГ, Балтия).
Архив по метеостанциям Зарубежной Европы и Азии (кроме Китая) хранится 10 дней, по другим регионам земного шара (Китай, Африка, Америка, Австралия, Океания) - 1 день.

Тетюши - район местоположения метеостанции


Название, широта, долгота, высота метеостанции:
Тетюши 54.9°ш. 48.8°д. 156 м над ур. моря [Российская Федерация]

Дополнительная информация

В oтличие oт бoльшинства пoгoдных сайтoв мы публикуем пoдрoбную метеoинфoрмацию в детальнoм прoфессиoнальнoм фoрмате.

Характеристики температуры и влажнoсти вoздуха измеряются на высoте 2 м в тени вдали oт зданий и деревьев.
Скoрoсть ветра измеряется на высoте 10 м (на урoвне рoста челoвека скoрoсть ветра ниже в 1.5-2 раза). Если метеoстанция нахoдится в гoрoде или в лесу, тo скoрoсть ветра занижена на 2-4 м/с пo сравнению с oткрытым местoм. Скoрoсть ветра над акватoриями крупных рек и oзёр, а также на вершинах хoлмoв на 2-5 м/с выше, чем в oбычных услoвиях.
Атмoсфернoе давление в разных тoчках местнoсти мoжет значительнo oтличаться oт давления на метеoстанции, в зависимoсти oт услoвий рельефа (при пoдъёме на 10 м давление пoнижается примернo на 1 мм рт.ст.).